Location: Eaton Estates
(41.3089°N, 82.0057°W)
Time: 15:04:39
(UTC+00:00)

FO-99 - Visible Passes

Search period start: 01 April 2023 00:00
Search period end: 11 April 2023 00:00
Orbit: 422 x 443 km, 97.1° (Epoch: 31 March)

Date Brightness Start Highest point End Pass type
(mag) Time Alt. Az. Time Alt. Az. Time Alt. Az.
01 Apr ? 00:45:10 10° S 00:48:20 39° W 00:51:30 10° NNW visible
03 Apr ? 00:56:52 10° SSW 00:59:46 27° W 01:02:41 10° NW visible
05 Apr ? 01:08:16 10° SW 01:10:46 20° W 01:13:16 10° NW visible
06 Apr ? 00:26:28 10° S 00:29:46 76° W 00:33:05 10° NNW visible
07 Apr ? 01:19:23 10° SW 01:21:18 14° W 01:23:12 10° WNW visible
08 Apr ? 00:36:47 10° S 00:40:00 52° W 00:43:15 10° NNW visible
09 Apr ? 01:30:35 10° WSW 01:31:22 11° W 01:32:09 10° WNW visible
10 Apr ? 00:46:43 10° SSW 00:49:47 37° W 00:52:53 10° NNW visible
